Crestview, FL

7:32 PM CDT on June 24, 2017 (GMT -0500)
Sikes | | Change Station
Active Advisory: Flood Warning

Elev 210 ft 30.78 °N, 86.52 °W | Updated 39 minutes ago

Partly Cloudy
Partly Cloudy
86 °F
Feels Like 95 °F
N
7
Wind Variable Wind from SW

Today
High -- | Low -- °F
--% Chance of Precip.
Yesterday
High -- | Low -- °F
Precip. -- in
Pressure 30.02 in
Visibility 10.0 miles
Clouds Few 3800 ft
Heat Index 95 °F
Dew Point 75 °F
Humidity 70%
Rainfall 0.01 in
Snow Depth Not available.
5:44 AM 7:52 PM
New Moon, 1% visible
METAR KCEW 242353Z AUTO 23006KT 10SM FEW038 30/24 A3003 RMK AO2 SLP165 60000 T03000239 10328 20272 53002
Pressure 30.02 in
Visibility 10.0 miles
Clouds Few 3800 ft
Heat Index 95 °F
Dew Point 75 °F
Humidity 70%
Rainfall 0.01 in
Snow Depth Not available.
5:44 AM 7:52 PM
New Moon, 1% visible
METAR KCEW 242353Z AUTO 23006KT 10SM FEW038 30/24 A3003 RMK AO2 SLP165 60000 T03000239 10328 20272 53002

Get Your Daily Forecast Email!

Thanks for signing up!

Be on the lookout for a verification email in your inbox.

You'll start receiving severe weather alerts in your inbox..

×

10-Day Weather Forecast

Almanac

Astronomy

Jun. 24, 2017 Rise Set
Actual Time
Civil Twilight
Nautical Twilight
Astronomical Twilight
Moon
Length of Visible Light
Length of Day
Tomorrow will be .
, % of the Moon is Illuminated

Today's Extremes

State Highs State Lows

Community

WunderPhotos

Category 6

Welcome to Category 6. This is the collective home for Weather Underground's featured writeups by Dr. Jeff Masters (right), Bob Henson (left), Chris Burt, and other regular contributors.

Nearby

Air Quality

  Air Quality AQ Index Pollutant
Not available.

Snow Depth

Station Depth Elevation

Earthquake Activity

City Distance Mag. Time & Date
Minimum magnitude displayed is 2.5.

Coastal Water Temperatures

Place Temperature

Stations

Nearby Weather Stations

Station Location Temp. Windchill Dew Point Humidity Wind Precip. Elev Updated Type
                   

Watches & Warnings

Flood Warning
Issued: 10:23 AM CDT Jun. 24, 2017 – National Weather Service

The National Weather Service in Mobile has issued a

* Flood Warning for
the shoal river near Crestview
* from this morning until Sunday morning
* at 9 am Saturday the stage was... 8.2 feet.
* Minor flooding is occurring and minor flooding is forecast
* flood stage is 8 feet.
* The river will remain steady around 8.2 feet through this afternoon before
falling this evening. The river will fall below flood stage after midnight tomorrow.
* At 8 feet... minor flooding of low lying areas.


Lat... Lon 3078 8650 3078 8649 3069 8653 3069 8663
3070 8663 3070 8655